DW3845 Weather Reports


Display with metric or nautical units.
time (UTC)temp
F
wind
direction
speed
MPH
gust
MPH
rain 1hr
in
rain 24hr
in
rain mn
in
humidity
%
barometer
mb
20260901044502 56 46 2.0 4.0 0.00 0.00 0.00 56 996.1
20260901043100 57 44 2.0 3.0 0.00 0.00 0.00 56 996.2
20260901041600 57 47 1.0 3.0 0.00 0.00 0.00 56 996.1
20260901040059 58 46 2.0 4.0 0.00 0.00 0.00 55 996.1
20260901034558 59 46 1.0 3.0 0.00 0.00 0.00 54 996.1
20260901033059 59 43 1.0 2.0 0.00 0.00 0.00 53 996.1
20260901031558 60 42 1.0 2.0 0.00 0.00 0.00 53 996.0
20260901030057 61 43 2.0 2.0 0.00 0.00 0.00 50 995.9
20260901024557 62 46 2.0 3.0 0.00 0.00 0.00 49 995.8
20260901023056 64 46 1.0 2.0 0.00 0.00 0.00 47 995.9
20260901021555 66 46 2.0 3.0 0.00 0.00 0.00 44 995.9
20260901020056 68 44 2.0 2.0 0.00 0.00 0.00 41 995.9
20260901014554 71 323 0.0 1.0 0.00 0.00 0.00 37 996.1
20260901013102 73 278 0.0 1.0 0.00 0.00 0.00 33 996.2
20260901011550 75 276 0.0 1.0 0.00 0.00 0.00 32 996.3
20260901010049 76 260 0.0 1.0 0.00 0.00 0.00 31 996.4
20260901004548 76 300 0.0 2.0 0.00 0.00 0.00 31 996.5
20260901003046 77 271 0.0 2.0 0.00 0.00 0.00 31 996.6
20260901001545 77 152 0.0 2.0 0.00 0.00 0.00 30 996.7
20260901000045 77 256 0.0 3.0 0.00 0.00 0.00 30 996.8
20260831234550 78 266 1.0 5.0 0.00 0.00 0.00 29 997.0
20260831233041 79 158 3.0 5.0 0.00 0.00 0.00 28 997.2
20260831231537 79 142 1.0 4.0 0.00 0.00 0.00 29 997.5
20260831230039 79 215 1.0 4.0 0.00 0.00 0.00 29 997.7
20260831224535 79 326 0.0 4.0 0.00 0.00 0.00 29 997.7
20260831223029 79 53 1.0 3.0 0.00 0.00 0.00 29 997.9
20260831221526 78 200 2.0 8.0 0.00 0.00 0.00 30 998.1
20260831220023 77 149 2.0 6.0 0.00 0.00 0.00 31 998.3
20260831214523 78 160 1.0 5.0 0.00 0.00 0.00 32 998.4
20260831213016 77 84 2.0 6.0 0.00 0.00 0.00 33 998.6
20260831211514 77 59 1.0 5.0 0.00 0.00 0.00 33 998.9
20260831210026 76 62 2.0 5.0 0.00 0.00 0.00 33 999.0
20260831204509 75 124 3.0 6.0 0.00 0.00 0.00 34 999.4
20260831203004 74 136 0.0 5.0 0.00 0.00 0.00 36 999.6
20260831201502 74 22 4.0 7.0 0.00 0.00 0.00 35 999.9
20260831200059 73 358 1.0 7.0 0.00 0.00 0.00 36 1000.2
20260831194600 73 290 1.0 6.0 0.00 0.00 0.00 37 1000.4
20260831193126 72 13 1.0 5.0 0.00 0.00 0.00 37 1000.6
20260831191552 73 203 2.0 6.0 0.00 0.00 0.00 38 1000.9
20260831190050 72 189 1.0 3.0 0.00 0.00 0.00 39 1001.1
20260831184545 71 186 1.0 4.0 0.00 0.00 0.00 41 1001.3
20260831183045 70 146 1.0 3.0 0.00 0.00 0.00 44 1001.6
20260831181549 68 255 0.0 3.0 0.00 0.00 0.00 47 1001.8
20260831180037 66 6 0.0 5.0 0.00 0.00 0.00 52 1002.1
20260831174530 65 262 0.0 3.0 0.00 0.00 0.00 51 1002.1
20260831173027 64 266 0.0 3.0 0.00 0.00 0.00 57 1002.4
20260831171522 63 217 0.0 3.0 0.00 0.00 0.00 59 1002.5
20260831170020 62 262 1.0 3.0 0.00 0.00 0.00 63 1002.6
20260831164517 60 252 1.0 4.0 0.00 0.00 0.00 65 1002.7
20260831163012 59 205 1.0 3.0 0.00 0.00 0.00 69 1002.9
20260831161509 57 248 0.0 1.0 0.00 0.00 0.00 71 1003.1
20260831160004 56 167 0.0 3.0 0.00 0.00 0.00 72 1003.2
20260831154612 55 159 0.0 3.0 0.00 0.00 0.00 75 1003.2
20260831153057 53 47 0.0 0.0 0.00 0.00 0.00 79 1003.3
20260831151555 52 46 0.0 0.0 0.00 0.00 0.00 79 1003.3
20260831150057 48 46 0.0 0.0 0.00 0.00 0.00 84 1003.4
20260831144553 46 46 0.0 0.0 0.00 0.00 0.00 83 1003.3
20260831143046 44 47 1.0 2.0 0.00 0.00 0.00 83 1003.2
20260831141549 43 46 1.0 2.0 0.00 0.00 0.00 81 1003.1
20260831140044 43 47 2.0 3.0 0.00 0.00 0.00 82 1003.1
20260831134544 42 51 0.0 3.0 0.00 0.00 0.00 82 1002.9
20260831133040 41 47 3.0 3.0 0.00 0.00 0.00 83 1002.9
20260831131553 41 47 1.0 3.0 0.00 0.00 0.00 84 1002.7
20260831130042 42 46 1.0 3.0 0.00 0.00 0.00 84 1002.6
20260831124539 41 34 1.0 2.0 0.00 0.00 0.00 83 1002.6
20260831123032 42 40 2.0 2.0 0.00 0.00 0.00 83 1002.5
20260831121531 42 46 2.0 3.0 0.00 0.00 0.00 84 1002.6
20260831120029 42 44 2.0 2.0 0.00 0.00 0.00 84 1002.5
20260831114527 42 41 1.0 2.0 0.00 0.03 0.00 84 1002.5
20260831113027 42 50 2.0 3.0 0.00 0.03 0.00 83 1002.5
20260831111536 42 42 2.0 3.0 0.00 0.03 0.00 81 1002.4
20260831110022 42 44 1.0 3.0 0.00 0.03 0.00 83 1002.3
20260831104525 42 44 2.0 3.0 0.00 0.03 0.00 82 1002.1
20260831103019 42 44 2.0 2.0 0.00 0.03 0.00 81 1002.2
20260831101516 43 44 1.0 2.0 0.00 0.03 0.00 80 1002.0
20260831100016 43 46 2.0 3.0 0.00 0.03 0.00 79 1001.9
20260831094530 43 46 2.0 4.0 0.00 0.03 0.00 80 1001.9
20260831093033 44 38 2.0 3.0 0.00 0.03 0.00 79 1002.0
20260831091508 44 42 2.0 3.0 0.00 0.03 0.00 78 1002.1
20260831090007 44 42 1.0 3.0 0.00 0.03 0.00 78 1002.1
20260831084511 45 46 1.0 3.0 0.00 0.03 0.00 77 1002.0
20260831083003 45 43 1.0 2.0 0.00 0.03 0.00 77 1002.0
20260831081505 45 44 2.0 3.0 0.00 0.03 0.00 76 1002.0
20260831080128 45 40 1.0 2.0 0.00 0.03 0.00 76 1002.1
20260831074557 45 51 1.0 3.0 0.00 0.03 0.00 75 1002.0
20260831073055 46 43 2.0 3.0 0.00 0.03 0.00 74 1001.9
20260831071551 47 44 3.0 4.0 0.00 0.03 0.00 72 1001.9
20260831070049 47 44 2.0 4.0 0.00 0.03 0.00 73 1002.0
20260831064549 47 13 1.0 3.0 0.00 0.03 0.03 72 1002.0
20260831063105 47 44 2.0 3.0 0.00 0.03 0.03 72 1002.0
20260831061545 48 46 2.0 3.0 0.00 0.03 0.03 71 1001.8
20260831060045 48 40 2.0 2.0 0.00 0.03 0.03 71 1001.8
20260831054541 48 44 1.0 3.0 0.00 0.03 0.03 69 1001.7
20260831053111 49 46 2.0 3.0 0.00 0.03 0.03 69 1001.7
20260831051540 49 41 1.0 3.0 0.00 0.03 0.03 68 1001.7
20260831050039 50 42 2.0 3.0 0.00 0.03 0.03 67 1001.6